TimeCST,TemperatureF,Dew PointF,Humidity,Sea Level PressureIn,VisibilityMPH,Wind Direction,Wind SpeedMPH,Gust SpeedMPH,PrecipitationIn,Events,Conditions,WindDirDegrees,DateUTC
12:15 AM,28.4,24.8,86,30.14,7.0,SE,8.1,-,N/A,,Overcast,130,2014-02-17 06:15:00
12:35 AM,28.4,24.8,86,30.14,7.0,SE,9.2,-,N/A,,Overcast,130,2014-02-17 06:35:00
12:55 AM,28.4,24.8,86,30.13,7.0,ESE,9.2,-,N/A,,Overcast,120,2014-02-17 06:55:00
1:15 AM,28.4,24.8,86,30.10,7.0,ESE,11.5,-,N/A,,Overcast,120,2014-02-17 07:15:00
1:35 AM,28.4,24.8,86,30.08,7.0,ESE,12.7,-,N/A,,Overcast,120,2014-02-17 07:35:00
1:55 AM,28.4,24.8,86,30.06,7.0,ESE,12.7,-,N/A,,Overcast,120,2014-02-17 07:55:00
2:15 AM,26.6,24.8,93,30.04,7.0,SE,13.8,17.3,N/A,,Overcast,130,2014-02-17 08:15:00
2:35 AM,28.4,24.8,86,30.03,7.0,SE,9.2,-,N/A,,Overcast,130,2014-02-17 08:35:00
2:55 AM,28.4,24.8,86,30.03,7.0,ESE,10.4,-,N/A,,Overcast,120,2014-02-17 08:55:00
3:15 AM,28.4,24.8,86,30.01,7.0,SE,12.7,17.3,N/A,,Overcast,130,2014-02-17 09:15:00
3:35 AM,28.4,24.8,86,30.00,5.0,SE,10.4,-,N/A,Rain,Freezing Rain,130,2014-02-17 09:35:00
3:55 AM,28.4,26.6,93,29.99,6.0,SE,12.7,17.3,N/A,,Overcast,130,2014-02-17 09:55:00
4:15 AM,28.4,26.6,93,29.98,7.0,SE,12.7,-,N/A,,Overcast,130,2014-02-17 10:15:00
4:35 AM,28.4,26.6,93,29.98,6.0,SE,12.7,-,N/A,Thunderstorm,Overcast,130,2014-02-17 10:35:00
4:55 AM,28.4,26.6,93,29.96,5.0,SE,12.7,-,N/A,,Overcast,140,2014-02-17 10:55:00
5:15 AM,28.4,26.6,93,29.95,5.0,ESE,15.0,-,N/A,,Overcast,120,2014-02-17 11:15:00
5:35 AM,28.4,28.4,100,29.94,5.0,SE,11.5,-,N/A,,Overcast,130,2014-02-17 11:35:00
5:55 AM,28.4,28.4,100,29.93,5.0,SE,12.7,20.7,N/A,,Overcast,130,2014-02-17 11:55:00
6:15 AM,28.4,28.4,100,29.92,5.0,SE,12.7,-,N/A,,Overcast,130,2014-02-17 12:15:00
6:35 AM,28.4,28.4,100,29.90,5.0,ESE,12.7,-,N/A,,Overcast,120,2014-02-17 12:35:00
6:55 AM,28.4,28.4,100,29.90,5.0,ESE,8.1,-,N/A,,Overcast,120,2014-02-17 12:55:00
7:15 AM,28.4,28.4,100,29.87,5.0,ESE,12.7,-,N/A,,Overcast,120,2014-02-17 13:15:00
7:35 AM,30.2,28.4,93,29.88,4.0,SE,9.2,-,N/A,,Overcast,130,2014-02-17 13:35:00
7:55 AM,30.2,30.2,100,29.86,4.0,ESE,11.5,-,N/A,,Overcast,120,2014-02-17 13:55:00
8:15 AM,32.0,30.2,93,29.85,5.0,ESE,9.2,-,N/A,,Overcast,120,2014-02-17 14:15:00
8:35 AM,32.0,30.2,93,29.86,5.0,ESE,9.2,-,N/A,,Overcast,120,2014-02-17 14:35:00
8:55 AM,32.0,32.0,100,29.85,2.0,ESE,8.1,-,N/A,Rain,Light Rain,120,2014-02-17 14:55:00
9:15 AM,32.0,32.0,100,29.83,2.0,ESE,8.1,-,N/A,,Scattered Clouds,110,2014-02-17 15:15:00
9:35 AM,32.0,32.0,100,29.82,3.0,ESE,5.8,-,N/A,,Mostly Cloudy,110,2014-02-17 15:35:00
9:55 AM,32.0,32.0,100,29.81,3.0,ESE,5.8,-,N/A,,Overcast,110,2014-02-17 15:55:00
10:15 AM,32.0,32.0,100,29.81,3.0,East,3.5,-,N/A,,Overcast,80,2014-02-17 16:15:00
10:35 AM,32.0,32.0,100,29.82,2.5,Calm,Calm,-,N/A,,Overcast,0,2014-02-17 16:35:00
10:55 AM,32.0,32.0,100,29.82,0.8,Calm,Calm,-,N/A,Rain,Light Rain,0,2014-02-17 16:55:00
11:15 AM,32.0,32.0,100,29.82,0.8,Calm,Calm,-,N/A,Rain,Light Rain,0,2014-02-17 17:15:00
11:35 AM,32.0,32.0,100,29.82,0.8,Calm,Calm,-,N/A,,Overcast,0,2014-02-17 17:35:00
11:55 AM,32.0,32.0,100,29.82,1.0,NNW,3.5,-,N/A,,Overcast,330,2014-02-17 17:55:00
12:15 PM,32.0,32.0,100,29.81,1.0,Calm,Calm,-,N/A,Rain,Light Rain,0,2014-02-17 18:15:00
12:35 PM,32.0,32.0,100,29.84,1.2,NW,5.8,-,N/A,,Mostly Cloudy,320,2014-02-17 18:35:00
12:55 PM,35.6,35.6,100,29.83,2.5,WNW,11.5,-,N/A,,Partly Cloudy,300,2014-02-17 18:55:00
1:15 PM,37.4,37.4,100,29.85,3.0,WNW,13.8,21.9,N/A,,Partly Cloudy,300,2014-02-17 19:15:00
1:35 PM,39.2,37.4,93,29.88,6.0,WNW,17.3,26.5,N/A,,Mostly Cloudy,300,2014-02-17 19:35:00
1:55 PM,41.0,37.4,87,29.89,9.0,WNW,19.6,26.5,N/A,,Mostly Cloudy,290,2014-02-17 19:55:00
2:15 PM,41.0,37.4,87,29.89,10.0,WNW,15.0,24.2,N/A,,Partly Cloudy,300,2014-02-17 20:15:00
2:35 PM,42.8,35.6,76,29.90,10.0,WNW,13.8,20.7,N/A,,Clear,300,2014-02-17 20:35:00
2:55 PM,44.6,35.6,71,29.91,10.0,WNW,13.8,23.0,N/A,,Clear,300,2014-02-17 20:55:00
3:15 PM,44.6,35.6,71,29.91,10.0,WNW,13.8,19.6,N/A,,Clear,290,2014-02-17 21:15:00
3:35 PM,44.6,35.6,71,29.91,10.0,WNW,13.8,18.4,N/A,,Clear,300,2014-02-17 21:35:00
3:55 PM,46.4,33.8,62,29.92,10.0,West,11.5,23.0,N/A,,Clear,280,2014-02-17 21:55:00
4:15 PM,44.6,35.6,71,29.93,10.0,WNW,8.1,-,N/A,,Clear,300,2014-02-17 22:15:00
4:35 PM,46.4,33.8,62,29.93,10.0,WNW,15.0,21.9,N/A,,Clear,290,2014-02-17 22:35:00
4:55 PM,46.4,32.0,57,29.95,10.0,West,12.7,19.6,N/A,,Clear,280,2014-02-17 22:55:00
5:15 PM,46.4,32.0,57,29.97,10.0,WNW,9.2,-,N/A,,Clear,290,2014-02-17 23:15:00
5:55 PM,46.4,32.0,57,29.99,10.0,WNW,9.2,16.1,N/A,,Clear,300,2014-02-17 23:55:00
6:15 PM,44.6,32.0,61,30.00,10.0,WNW,10.4,17.3,N/A,,Clear,300,2014-02-18 00:15:00
6:35 PM,42.8,32.0,66,30.01,10.0,NW,8.1,-,N/A,,Clear,310,2014-02-18 00:35:00
6:55 PM,42.8,32.0,66,30.01,10.0,NNW,5.8,-,N/A,,Clear,330,2014-02-18 00:55:00
7:35 PM,42.8,32.0,66,30.01,10.0,NW,4.6,-,N/A,,Clear,320,2014-02-18 01:35:00
7:55 PM,42.8,30.2,61,30.01,10.0,NNW,3.5,-,N/A,,Clear,340,2014-02-18 01:55:00
8:15 PM,42.8,28.4,57,30.02,10.0,NNW,4.6,-,N/A,,Clear,340,2014-02-18 02:15:00
8:35 PM,42.8,28.4,57,30.02,10.0,North,4.6,-,N/A,,Clear,360,2014-02-18 02:35:00
8:55 PM,42.8,26.6,53,30.02,10.0,NNW,3.5,-,N/A,,Clear,340,2014-02-18 02:55:00
9:15 PM,41.0,28.4,61,30.03,10.0,Calm,Calm,-,N/A,,Clear,0,2014-02-18 03:15:00
9:35 PM,39.2,26.6,61,30.03,10.0,Calm,Calm,-,N/A,,Clear,0,2014-02-18 03:35:00
10:15 PM,35.6,26.6,70,30.03,10.0,Calm,Calm,-,N/A,,Clear,0,2014-02-18 04:15:00
10:35 PM,37.4,26.6,65,30.03,10.0,Calm,Calm,-,N/A,,Clear,0,2014-02-18 04:35:00
10:55 PM,35.6,26.6,70,30.03,10.0,Calm,Calm,-,N/A,,Clear,0,2014-02-18 04:55:00
11:15 PM,35.6,28.4,75,30.03,10.0,Calm,Calm,-,N/A,,Clear,0,2014-02-18 05:15:00
11:35 PM,35.6,26.6,70,30.03,10.0,Calm,Calm,-,N/A,,Clear,0,2014-02-18 05:35:00
11:55 PM,37.4,26.6,65,30.03,10.0,Calm,Calm,-,N/A,,Clear,0,2014-02-18 05:55:00